Flag for Switzerland Weather past 2 weeks in Winterthur, Switzerland

Now
45 °F

Clear.


Feels Like: 40 °F
Forecast: 36 / 70 °F
Wind: 8 mph from North

Location: Zurich-Kloten

Current Time: Apr 21, 2015 at 6:01:41 AM

Latest Report: Apr 21, 2015 at 5:20 AM


Visibility: 10 mi

Pressure: 30.30 "Hg

Humidity: 71%

Dew point: 36 °F

Location of WinterthurLocation

Historic Weather in Winterthur — Graph

°F

Winterthur temperature yesterday

Maximum temperature yesterday: 64 °F (at 2:50 PM)
Minimum temperature yesterday: 34 °F (at 5:50 AM)
Average temperature yesterday: 52 °F

Past Weeks' High & Low Weather Summary

 TemperatureHumidityPressure
High73 °F (Apr 15, 2:50 PM)100% (Apr 10, 6:50 AM)30.57 "Hg (Apr 10, 6:50 AM)
Low25 °F (Apr 7, 5:50 AM)19% (Apr 15, 4:20 PM)29.95 "Hg (Apr 16, 5:20 PM)
Average51 °F60%30.26 "Hg
* Reported Apr 6 4:20 AM — Apr 21 4:20 AM, Winterthur, Weather by CustomWeather, © 2015

Note: Actual official high and low records may vary slightly from our data, if they occured in-between our weather recording intervals... More about our weather records

Advertising

Winterthur weather history for previous 24 hours

 ConditionsComfort  
Time TempWeatherWind HumidityBarometerVisibility
4:20 AM
Tue, Apr 21
41 °FClear.2 mph76%30.30 "Hg10 mi
3:50 AM41 °FClear.2 mph76%30.30 "Hg10 mi
3:20 AM39 °FClear.1 mph87%30.30 "Hg10 mi
2:50 AM43 °FClear.No wind76%30.30 "Hg10 mi
1:50 AM45 °FClear.3 mph71%30.30 "Hg10 mi
1:20 AM43 °FClear.1 mph76%30.30 "Hg10 mi
12:50 AM43 °FClear.5 mph76%30.30 "Hg10 mi
12:20 AM45 °FClear.3 mph71%30.30 "Hg10 mi
11:50 PM
Mon, Apr 20
48 °FClear.5 mph62%30.30 "Hg10 mi
11:20 PM50 °FClear.6 mph54%30.30 "Hg10 mi
10:50 PM50 °FClear.7 mph54%30.27 "Hg10 mi
10:20 PM50 °FClear.6 mph58%30.27 "Hg10 mi
9:50 PM52 °FClear.5 mph54%30.27 "Hg10 mi
9:20 PM54 °FPassing clouds.5 mph51%30.24 "HgN/A
8:50 PM59 °FSunny.5 mph34%30.24 "Hg10 mi
8:20 PM61 °FSunny.6 mph29%30.24 "Hg10 mi
7:50 PM61 °FSunny.7 mph31%30.21 "Hg10 mi
7:20 PM63 °FSunny.7 mph27%30.21 "Hg10 mi
6:50 PM64 °FSunny.9 mph26%30.21 "Hg10 mi
6:20 PM64 °FPassing clouds.9 mph24%30.21 "HgN/A
5:50 PM64 °FPassing clouds.8 mph24%30.21 "HgN/A
5:20 PM64 °FPassing clouds.12 mph24%30.21 "HgN/A
4:50 PM64 °FSunny.8 mph28%30.21 "Hg10 mi
4:20 PM64 °FPassing clouds.8 mph30%30.21 "HgN/A
3:50 PM64 °FPassing clouds.8 mph30%30.21 "HgN/A
3:20 PM64 °FSunny.12 mph32%30.21 "Hg10 mi
2:50 PM64 °FPassing clouds.9 mph32%30.21 "HgN/A
2:20 PM63 °FPassing clouds.10 mph30%30.21 "HgN/A
1:50 PM63 °FPassing clouds.10 mph32%30.21 "HgN/A
1:20 PM61 °FPassing clouds.9 mph36%30.21 "HgN/A
12:50 PM59 °FPassing clouds.9 mph39%30.21 "HgN/A
12:20 PM59 °FSunny.13 mph39%30.24 "Hg10 mi
11:50 AM57 °FPassing clouds.12 mph41%30.24 "HgN/A
11:20 AM55 °FPassing clouds.6 mph41%30.24 "HgN/A
10:50 AM54 °FPassing clouds.7 mph51%30.24 "HgN/A
10:20 AM52 °FPassing clouds.6 mph50%30.21 "HgN/A
9:50 AM50 °FPassing clouds.6 mph50%30.21 "HgN/A
9:20 AM50 °FPassing clouds.3 mph50%30.21 "HgN/A
8:50 AM48 °FPassing clouds.2 mph54%30.21 "HgN/A
8:20 AM45 °FSunny.3 mph61%30.21 "Hg10 mi
7:50 AM43 °FSunny.2 mph66%30.21 "Hg10 mi
7:20 AM37 °FClear.No wind81%30.18 "Hg10 mi
6:50 AM36 °FClear.1 mph87%30.18 "Hg10 mi
6:20 AM36 °FClear.3 mph81%30.18 "Hg10 mi
Weather by CustomWeather, © 2015

See weather overviewHow to use our weather pages